Lid_Strength_Index
13 13 14 12 10 9 10 11 11 12 12 13 13 12 11 11 12 11 9 6 5 4 3 2 2 1 1 1 1 1 1 0 0 0 1 1 1 0 -0 -1 -1 -1 -1 -1
13 13 10 11 11 12 11 11 12 13 14 13 13 13 11 11 11 10 9 7 6 4 3 3 2 2 2 1 1 1 1 0 0 0 0 0 0 0 -0 -1 -1 -1 -1 -1
13 12 12 12 13 13 13 12 14 12 13 13 14 14 13 11 11 10 10 9 7 6 5 3 3 2 2 2 1 1 1 0 0 -0 -0 0 -0 -0 0 0 -0 -1 -1 -1
12 12 13 13 14 12 15 12 12 13 13 15 14 15 12 12 12 12 11 10 9 7 7 6 4 3 2 2 1 1 1 1 0 -0 1 1 2 2 1 0 -0 -0 -1 -1
13 13 13 13 12 11 13 12 12 13 14 15 15 16 13 14 13 12 10 10 9 8 7 7 6 5 4 1 1 1 1 1 0 0 0 1 1 1 0 0 0 0 -0 -1
12 11 11 11 12 11 12 13 14 14 14 18 14 15 14 13 13 11 9 9 8 8 7 7 7 6 6 5 3 1 1 1 1 0 0 1 1 1 1 1 1 1 0 -0
13 13 12 11 13 13 12 13 17 18 18 18 17 17 14 11 11 11 10 9 9 8 9 8 8 8 8 6 5 3 1 2 1 1 1 1 1 1 1 1 1 1 1 0
15 17 14 12 12 14 13 13 16 20 20 17 18 18 14 11 10 10 10 10 10 10 10 9 9 8 7 6 6 5 4 2 1 1 1 1 0 1 1 1 1 1 1 0
15 17 14 13 13 11 14 15 12 17 21 18 16 15 13 11 11 12 11 11 10 10 10 9 8 8 7 6 5 5 4 4 3 1 1 1 1 1 1 1 0 0 0 2
13 17 14 14 12 12 13 12 16 16 19 20 18 18 15 13 12 12 12 11 10 10 10 10 8 7 6 5 4 3 3 3 4 4 4 4 3 1 1 0 1 1 1 4
12 13 16 14 15 15 14 15 15 14 15 18 19 16 12 13 12 12 11 11 10 10 9 9 8 7 6 5 5 4 4 4 4 4 3 3 4 4 0 1 1 2 4 5
12 14 17 16 14 13 13 13 13 16 19 18 19 17 13 13 12 12 11 11 11 10 9 8 8 8 7 6 5 4 4 5 4 3 4 3 4 4 3 2 2 4 5 5
12 15 18 17 15 14 14 14 13 13 14 17 16 15 13 13 12 11 11 10 11 10 9 9 8 8 7 7 6 5 5 5 5 4 4 6 6 4 4 4 5 5 6 7
10 14 15 18 16 15 16 15 13 13 15 16 16 14 13 13 12 11 10 10 10 9 9 8 8 7 7 7 6 6 5 5 5 6 6 6 6 6 6 7 7 8 7 8
11 14 15 15 14 13 13 14 14 14 14 15 14 14 12 11 11 10 9 9 10 9 9 8 8 7 7 7 7 7 6 6 7 7 7 6 6 6 7 8 9 9 9 9
12 14 15 16 15 13 14 13 13 13 13 13 13 14 12 9 9 11 10 10 9 9 9 9 8 8 8 8 7 7 7 7 8 8 8 8 9 10 10 10 11 11 11 10
13 15 14 16 16 14 15 15 13 13 12 12 15 12 11 11 11 10 9 10 10 9 10 9 9 8 8 8 8 8 8 8 8 9 8 10 10 11 11 12 12 12 11 11
14 14 14 17 15 18 14 10 11 12 12 11 12 12 10 10 9 9 9 10 10 9 9 9 9 9 8 8 8 8 9 9 10 10 10 11 12 12 13 13 13 12 12 12
10 13 17 16 16 15 14 15 14 14 14 11 12 11 11 11 11 10 10 9 8 8 9 9 9 8 8 9 9 10 11 11 11 11 10 12 12 13 14 14 13 12 12 12
12 10 13 18 17 19 15 14 12 10 15 10 10 10 11 10 12 10 7 9 10 10 10 10 9 9 9 9 10 11 11 11 11 10 11 11 12 13 13 13 13 13 12 13
14 14 15 16 15 14 13 13 10 15 14 11 11 10 11 11 9 10 10 10 11 11 11 11 10 11 11 11 11 11 11 11 10 12 12 13 13 13 12 13 13 14 13 14
14 15 15 14 16 17 13 13 13 10 11 10 10 10 10 11 11 11 11 11 12 12 12 14 13 13 13 13 12 12 12 12 13 14 14 14 14 13 14 14 14 14 14 14
15 12 14 13 13 11 11 10 10 10 10 10 9 10 10 11 11 11 11 12 12 14 15 15 15 14 15 15 14 14 14 14 15 14 14 14 14 14 14 14 14 14 14 14
13 12 11 12 12 12 11 11 10 10 10 10 10 10 10 11 11 13 14 14 14 15 15 16 15 15 16 16 16 16 15 16 15 15 15 16 15 15 15 14 14 14 14 14
12 11 13 14 14 12 12 11 11 11 11 12 12 12 12 11 13 13 14 15 15 16 16 16 16 16 17 17 17 18 17 16 16 16 17 16 15 16 15 15 14 14 14 13
13 14 12 12 12 10 12 11 11 12 13 13 13 14 15 14 14 14 16 16 17 17 17 17 17 17 17 17 18 18 18 17 17 17 17 16 17 17 16 16 16 14 14 14